Hourly Data Report for November 19, 2019

SHEARWATER RCS
NOVA SCOTIA
Current Station Operator: ECCC - MSC

44°37'47.000" N
63°30'48.000" W
24.00 m
8205092
71264
AAW

Download Data

Hourly Data (November 2019)
Hourly Data Report for November 19, 2019
TIME
LST
Temp Definition
°C
Dew Point Definition
°C
Rel Hum Definition
%
Precip. Amount Definition
mm

Wind Dir Definition
10's deg

Wind Spd Definition
km/h
Visibility Definition
km
Stn Press Definition
kPa
Hmdx Definition


Wind Chill Definition


Weather Definition


00:00 5.9 4.6 91 0.3 2 22   99.36     LegendNANA
01:00 5.6 4.3 92 0.0 3 26   99.18     LegendNANA
02:00 6.0 4.4 90 0.0 3 28   99.11     LegendNANA
03:00 5.9 4.3 90 0.0 36 19   99.22     LegendNANA
04:00 5.2 3.9 91 0.0 33 16   99.25     LegendNANA
05:00 5.3 4.1 92 0.0 33 17   99.27     LegendNANA
06:00 5.1 3.9 92 0.0 34 18   99.28     LegendNANA
07:00 5.0 3.7 92 0.0 26 5   99.50     LegendNANA
08:00 5.2 3.8 91 0.0 33 12   99.58     LegendNANA
09:00 6.2 4.4 88 0.0 32 12   99.68     LegendNANA
10:00 6.5 4.4 86 0.0 30 12   99.82     LegendNANA
11:00 6.5 4.1 85 0.0 29 13   99.96     LegendNANA
12:00 6.5 4.4 86 0.0 31 11   100.00     LegendNANA
13:00 6.8 4.5 85 0.0 30 11   100.04     LegendNANA
14:00 6.7 4.2 84 0.0 30 12   100.11     LegendNANA
15:00 7.1 3.3 77 0.0 26 9   100.25     LegendNANA
16:00 6.4 3.4 81 0.0 30 8   100.32     LegendNANA
17:00 6.1 3.3 83 0.0 30 6   100.39     LegendNANA
18:00 5.2 2.9 85 0.0 31 7   100.49     LegendNANA
19:00 5.2 3.3 87 0.0 27 2   100.60     LegendNANA
20:00 4.9 3.2 89 0.0 0 1   100.62     LegendNANA
21:00 4.1 2.7 90 0.0 35 1   100.70     LegendNANA
22:00 4.3 3.0 91 0.0 35 4   100.71     LegendNANA
23:00 4.5 3.2 91 0.0 36 6   100.71     LegendNANA

Notes on Data Quality.

Legend

  • E = Estimated
  • M = Missing
  • NA = Not Available*
  • [empty] = Indicates an unobserved value
Date modified: